{"data":{"norad_id":67738,"intl_designator":"2026-026T","name":"STARLINK-36327","alt_names":[],"object_type":"PAYLOAD","status":"ACTIVE","operator":null,"country":"US","launch_date":"2026-02-11","launch_site_code":"AFWTR","launch_vehicle":null,"mission":null,"orbit_class":"UNKNOWN","rcs_meters":null,"size_class":null,"mass_kg":null,"dimensions":null,"purposes":["comms"],"wikipedia_slug":null,"has_3d_model":false,"image_url":null,"decayed_at":null,"tle_current":{"epoch":"2026-09-19T09:30:10.007424Z","epoch_age_seconds":161861,"freshness":"FRESH","line1":"1 67738U 26026T   26262.39594916  .00012715  00000+0  39539-3 0  9998","line2":"2 67738  97.2869 314.2779 0000405  74.8524 285.2763 15.33454221 33814","mean_motion":15.33454221,"eccentricity":4.05e-5,"inclination_deg":97.2869,"raan_deg":314.2779,"arg_perigee_deg":74.8524,"mean_anomaly_deg":285.2763,"bstar":0.00039539,"rev_number":3381,"period_min":93.905639978019,"perigee_km":465.23857147119,"apogee_km":465.79290734308,"semimajor_km":6843.6527394071,"source":"CELESTRAK","updated_at":"2026-09-20T09:00:43.659985Z"}}}